This is the latest recevied weather packets stored in our database for station/object KQ4OSL. If no packets are shown the sender has not sent any weather packets the latest 1 day(s).
| Time | Temp. | Humidity | Pressure | Rain* | Wind** | Luminosity | Snow |
|---|---|---|---|---|---|---|---|
| 1778051142 | 18.89° C | 84% | 1014.6 hPa | 0 mm | - | 0 W/m² | - |
| 1778050839 | 18.89° C | 84% | 1014.8 hPa | 0 mm | - | 0 W/m² | - |
| 1778050537 | 18.89° C | 84% | 1014.8 hPa | 0 mm | - | 0 W/m² | - |
| 1778049626 | 18.89° C | 84% | 1015.2 hPa | 0 mm | - | 0 W/m² | - |
| 1778049021 | 18.89° C | 83% | 1015.3 hPa | 0 mm | - | 0 W/m² | - |
| 1778048112 | 18.89° C | 82% | 1015.2 hPa | 0 mm | - | 0 W/m² | - |
| 1778047810 | 19.44° C | 81% | 1015.2 hPa | 0 mm | - | 0 W/m² | - |
| 1778047205 | 19.44° C | 81% | 1015.1 hPa | 0 mm | - | 0 W/m² | - |
| 1778045388 | 19.44° C | 81% | 1015 hPa | 0 mm | - | 0 W/m² | - |
| 1778045087 | 19.44° C | 81% | 1015.1 hPa | 0 mm | - | 0 W/m² | - |
| 1778044480 | 18.89° C | 81% | 1015 hPa | 0 mm | - | 0 W/m² | - |
| 1778044177 | 18.89° C | 80% | 1015.1 hPa | 0 mm | - | 0 W/m² | - |
| 1778043875 | 18.89° C | 80% | 1015 hPa | 0 mm | - | 0 W/m² | - |
| 1778042965 | 18.33° C | 79% | 1014.8 hPa | 0 mm | - | 0 W/m² | - |
| 1778042360 | 18.33° C | 78% | 1015.2 hPa | 0 mm | - | 0 W/m² | - |
| 1778042057 | 18.33° C | 78% | 1015 hPa | 0 mm | - | 0 W/m² | - |
| 1778041755 | 18.33° C | 77% | 1015.1 hPa | 0 mm | - | 0 W/m² | - |
| 1778041454 | 18.33° C | 77% | 1015.3 hPa | 0 mm | - | 0 W/m² | - |
| 1778041152 | 17.78° C | 77% | 1015.1 hPa | 0 mm | - | 0 W/m² | - |
| 1778040849 | 17.78° C | 77% | 1015 hPa | 0 mm | - | 0 W/m² | - |
| 1778040546 | 17.78° C | 76% | 1015.3 hPa | 0 mm | - | 0 W/m² | - |
| 1778040244 | 17.78° C | 76% | 1015.1 hPa | 0 mm | - | 0 W/m² | - |
| 1778039939 | 18.33° C | 75% | 1015 hPa | 0 mm | - | 0 W/m² | - |
| 1778039637 | 18.33° C | 76% | 1014.9 hPa | 0 mm | - | 0 W/m² | - |
| 1778039334 | 18.89° C | 73% | 1014.7 hPa | 0 mm | - | 0 W/m² | - |
* Rain latest hour (hover to see other rain measurements)
** Current wind speed in m/s (hover to see current wind gust speed)